Reus, Spain

4:42 AM CET en Noviembre 21, 2018 (GMT +0100)
Reus Air Base

Tiempo Historia de LERS - Noviembre, 2018

Change the Weather History Date:

Viernes, Noviembre 9, 2018

  Actual Average Record
Temperature  
Temperatura media 56 ° F -  
Temperatura máxima 63 ° F 60 ° F 74 ° F (2015)
Temperatura mínima 50 ° F 44 ° F 37 ° F (2017)
Degree Days  
Grados día de calefacción 8    
Growing Degree Days 6 (Base 50)    
Moisture  
Punto de rocío 48 ° F    
Average Humidity 70    
Maximum Humidity 99    
Minimum Humidity 47    
Precipitación  
Precipitación 0.00 pul - - ()
Presión al nivel del mar  
Presión al nivel del mar 29.91 pul    
Viento  
Velocidad del viento 8 mph ()    
Velocidad máxima del viento 21 mph    
Max Gust Speed 26 mph    
Visibilidad 9.6 Millas    
Eventos Lluvia , Nieve , Tormenta    
Averages and records for this station are not official NWS values.
T = Trace of Precipitation, MM = Missing Value Source: Averaged Metar Reports

Daily Weather History Graph

Daily Weather History Graph

Search for Another Location

Airport or City:

Astronomía

Nov. 09, 2018 Salida Puesta
Hora real 7:35 AM CET 5:42 PM CET
Crepúsculo civil 7:06 AM CET 6:11 PM CET
Crepúsculo náutico 6:33 AM CET 6:44 PM CET
Crepúsculo astronómico 6:01 AM CET 7:16 PM CET
Luna 9:10 AM CET (11/9) 7:16 PM CET (11/9)
Horas de luz 11h 04m
Horas de luz
10h 06m
Creciente, 4% of the Moon is Illuminated
Nov 9
Creciente
Nov 15
Cuarto creciente
Nov 23
Luna llena
Nov 30
Cuarto menguante
Dic 7
Nueva

Hourly Weather History & Observations

Hora (CET) Temp. Punto de rocío Humedad Presión Visibilidad Wind Dir Velocidad del viento Velocidad de ráfagas Precip Eventos Condiciones
12:00 AM 59.0 ° F 57.2 ° F 94% 29.92 pul 6.2 mi ENE 4.6 mph - N/A   Muy nublado
12:30 AM 60.8 ° F 59.0 ° F 94% 29.92 pul 6.2 mi SE 4.6 mph - N/A Tormenta Nubes dispersas
1:00 AM 60.8 ° F 59.0 ° F 94% 29.92 pul 6.2 mi SE 3.5 mph - N/A   Muy nublado
1:30 AM 59.0 ° F 57.2 ° F 94% 29.92 pul - SSO 6.9 mph - N/A Lluvia , Tormenta Lluvias
2:00 AM 56 ° F 56 ° F 99% 29.91 pul 4 mi Norte 6.9 mph - -   Precipitación desconocida
2:00 AM 57.2 ° F 55.4 ° F 94% 29.89 pul 4.3 mi NNO 5.8 mph - N/A Lluvia , Tormenta Lluvias
2:30 AM 55.4 ° F 53.6 ° F 94% 29.89 pul 6.2 mi NNO 8.1 mph - N/A Lluvia Lluvia
3:00 AM 55 ° F 54 ° F 97% 29.91 pul 1 mi Este 4.6 mph - -   Precipitación desconocida
3:00 AM 55.4 ° F 53.6 ° F 94% 29.89 pul 0.9 mi NNE 4.6 mph - N/A Lluvia Lluvia
3:30 AM 55.4 ° F 53.6 ° F 94% 29.89 pul 3.1 mi NNO 9.2 mph - N/A Lluvia Lluvia
4:00 AM 55.4 ° F 53.6 ° F 94% 29.83 pul 5.6 mi Norte 10.4 mph - N/A Lluvia Lluvia débil
4:30 AM 55.4 ° F 50.0 ° F 82% 29.86 pul - NO 6.9 mph - N/A   Despejado
5:00 AM 54 ° F 51 ° F 85% 29.86 pul 19 mi NO 5.8 mph - -   Precipitación desconocida
5:30 AM 55.4 ° F 51.8 ° F 88% 29.86 pul - Norte 4.6 mph - N/A   Despejado
6:00 AM 54 ° F 51 ° F 87% 29.86 pul 19 mi NNE 4.6 mph - -  
6:00 AM 55.4 ° F 50.0 ° F 82% 29.86 pul - Norte 5.8 mph - N/A   Despejado
6:30 AM 53.6 ° F 51.8 ° F 94% 29.86 pul - SO 3.5 mph - N/A   Despejado
7:00 AM 54 ° F 50 ° F 82% 29.87 pul 12 mi ONO 5.8 mph - - Nieve Débil nevada
7:00 AM 55.4 ° F 50.0 ° F 82% 29.86 pul 6.2 mi Variable 2.3 mph - N/A   Nubes dispersas
7:30 AM 55.4 ° F 50.0 ° F 82% 29.86 pul 6.2 mi ONO 8.1 mph - N/A   Nubes dispersas
8:00 AM 55.4 ° F 50.0 ° F 82% 29.89 pul 6.2 mi Oeste 13.8 mph - N/A   Muy nublado
8:30 AM 55.4 ° F 46.4 ° F 72% 29.89 pul 6.2 mi ONO 15.0 mph - N/A   Muy nublado
9:00 AM 56 ° F 46 ° F 60% 29.89 pul 19 mi ONO 19.6 mph - -  
9:00 AM 55.4 ° F 46.4 ° F 72% 29.89 pul 6.2 mi ONO 12.7 mph - N/A   Nubes dispersas
9:30 AM 57.2 ° F 46.4 ° F 67% 29.89 pul 6.2 mi Oeste 9.2 mph - N/A   Parcialmente nublado
10:00 AM 58 ° F 46 ° F 55% 29.88 pul 19 mi ONO 18.4 mph - -   Nubes dispersas
10:00 AM 57.2 ° F 46.4 ° F 67% 29.86 pul 6.2 mi Oeste 13.8 mph - N/A   Parcialmente nublado
10:30 AM 59.0 ° F 46.4 ° F 63% 29.86 pul 6.2 mi Oeste 20.7 mph - N/A   Parcialmente nublado
11:00 AM 59 ° F 48 ° F 57% 29.89 pul 19 mi Oeste 15.0 mph - -   Precipitación desconocida
11:00 AM 59.0 ° F 46.4 ° F 63% 29.89 pul 6.2 mi Oeste 16.1 mph - N/A   Parcialmente nublado
11:30 AM 60.8 ° F 48.2 ° F 63% 29.89 pul 6.2 mi Oeste 15.0 mph - N/A   Parcialmente nublado
12:00 PM 59 ° F 48 ° F 57% 29.91 pul 19 mi Oeste 20.7 mph - -  
12:00 PM 59.0 ° F 48.2 ° F 67% 29.89 pul 6.2 mi Oeste 17.3 mph - N/A   Parcialmente nublado
12:30 PM 60.8 ° F 48.2 ° F 63% 29.89 pul 6.2 mi Oeste 16.1 mph - N/A   Parcialmente nublado
1:00 PM 61 ° F 48 ° F 51% 29.91 pul 19 mi ONO 15.0 mph - -   Nubes dispersas
1:00 PM 59.0 ° F 46.4 ° F 63% 29.89 pul 6.2 mi Oeste 11.5 mph 26.5 mph N/A   Parcialmente nublado
1:30 PM 60.8 ° F 48.2 ° F 63% 29.89 pul 6.2 mi ONO 15.0 mph 26.5 mph N/A   Parcialmente nublado
2:00 PM 59.0 ° F 46.4 ° F 63% 29.89 pul 6.2 mi Oeste 13.8 mph - N/A   Parcialmente nublado
2:30 PM 60.8 ° F 46.4 ° F 59% 29.89 pul 6.2 mi Oeste 9.2 mph 23.0 mph N/A   Parcialmente nublado
3:00 PM 62 ° F 47 ° F 47% 29.90 pul 19 mi NNO 6.9 mph - -  
3:00 PM 62.6 ° F 48.2 ° F 59% 29.89 pul 6.2 mi NO 8.1 mph - N/A   Parcialmente nublado
3:30 PM 62.6 ° F 46.4 ° F 55% 29.92 pul 6.2 mi ONO 11.5 mph - N/A   Parcialmente nublado
5:00 PM 60.8 ° F 44.6 ° F 55% 29.92 pul - ONO 11.5 mph - N/A   Despejado
5:30 PM 60.8 ° F 44.6 ° F 55% 29.92 pul - ONO 9.2 mph - N/A   Despejado
6:00 PM 59.0 ° F 44.6 ° F 59% 29.95 pul - NO 8.1 mph - N/A   Despejado
6:30 PM 59.0 ° F 44.6 ° F 59% 29.95 pul - ONO 4.6 mph - N/A   Despejado
7:00 PM 57 ° F 44 ° F 51% 29.98 pul 19 mi ONO 6.9 mph - -   Nubes dispersas
7:00 PM 59.0 ° F 42.8 ° F 55% 29.98 pul - ONO 9.2 mph 23.0 mph N/A   Despejado
7:30 PM 57.2 ° F 42.8 ° F 59% 29.98 pul - Oeste 9.2 mph - N/A   Despejado
8:00 PM 56 ° F 44 ° F 54% 29.99 pul 19 mi ONO 12.7 mph - -  
8:00 PM 57.2 ° F 42.8 ° F 59% 29.98 pul - Oeste 6.9 mph - N/A   Despejado
8:30 PM 55.4 ° F 42.8 ° F 63% 29.98 pul - NO 4.6 mph - N/A   Despejado
9:00 PM 54 ° F 43 ° F 57% 29.98 pul 19 mi ONO 6.9 mph - -  
9:00 PM 50.0 ° F 44.6 ° F 82% 29.98 pul - Variable 2.3 mph - N/A   Despejado
9:30 PM 53.6 ° F 42.8 ° F 67% 29.98 pul - OSO 5.8 mph - N/A   Despejado
10:00 PM 55 ° F 42 ° F 50% 29.99 pul 19 mi ONO 13.8 mph - -  
10:00 PM 55.4 ° F 41.0 ° F 58% 29.98 pul - Oeste 8.1 mph - N/A   Despejado
10:30 PM 53.6 ° F 41.0 ° F 62% 29.98 pul 6.2 mi NO 5.8 mph - N/A   Desconocido
11:00 PM 54 ° F 40 ° F 48% 29.99 pul 19 mi Oeste 13.8 mph - -  
11:00 PM 55.4 ° F 39.2 ° F 54% 29.98 pul 6.2 mi Oeste 10.4 mph - N/A   Desconocido
11:30 PM 55.4 ° F 39.2 ° F 54% 29.98 pul 6.2 mi NO 11.5 mph - N/A   Desconocido